Back to catalog

DB-BECON-2-VU

AliveScienceSSO
NORAD 68468·PAYLOAD·🇬🇷 Greece

Launched Mar 30, 2026 from Vandenberg Space Force Base

Loading…

Next Passes (next 24 hours)

TLE

FreshSource: Space-Track

Epoch: Sep 14, 2026, 08:34 UTC

1 68468U 26067BE  26257.35719328  .00006896  00000-0  33294-3 0  9996
2 68468  97.4637 214.4878 0008669 101.7899 258.4308 15.18948488 25461

Track DB-BECON-2-VU in real time with AllMySat

Download on the App Store